Regional Weather Roundup
Issued by NWS

Home | Current Version | Previous Version | Graphics & Text | Print | Product List | Glossary On
Versions: 1 2 3 4 5 6 7 8 9 10 11 12 13 14 15 16 17 18 19 20 21 22 23 24 25 26 27 28 29 30 31 32 33 34 35 36 37 38 39 40 41 42 43 44 45 46 47 48 49 50
336
ASUS44 KJAN 250203
RWRMS

MISSISSIPPI HOURLY WEATHER ROUNDUP
NATIONAL WEATHER SERVICE JACKSON MS
800 PM CST MON NOV 24 2014

NOTE: "FAIR: INDICATES FEW OR NO CLOUDS BELOW 12,000 FEET WITH NO
SIGNIFICANT WEATHER AND/OR OBSTRUCTIONS TO VISIBILITY.

MSZ001>002-007>008-010>013-018>021-025>028-034>036-250300-
NORTHWEST MISSISSIPPI

CITY           SKY/WX    TMP DP  RH WIND       PRES   REMARKS
CLARKSDALE     FAIR      48  36  61 SW6       30.05R
CLEVELAND      FAIR      48  39  71 SW5       30.04R
GREENWOOD      CLEAR     42  38  85 NE3       30.05R
GREENVILLE     CLEAR     47  36  65 CALM      30.05R
GRENADA        FAIR      37  36  93 CALM      30.04S
OLIVE BRANCH   PTCLDY    39  36  87 SW7       30.01R WCI  34
OXFORD         FAIR      37  32  81 CALM      30.04R
TUNICA         CLEAR     43  36  75 SW9       30.03R
$$

MSZ003>006-009-014>017-022>024-029>033-037>039-250300-
NORTHEAST MISSISSIPPI

CITY           SKY/WX    TMP DP  RH WIND       PRES   REMARKS
COLUMBUS AFB   PTCLDY    50  34  54 NW7       30.02R
CORINTH        FAIR      41  36  81 CALM      30.01R
GOLDN TRIANGLE CLEAR     48  34  57 NW7       30.02
STARKVILLE     FAIR      46  36  66 W5        30.03R
TUPELO         MOCLDY    48  34  58 CALM      30.03R
$$

MSZ040-058-250300-
CENTRAL MISSISSIPPI

CITY           SKY/WX    TMP DP  RH WIND       PRES   REMARKS
JACKSON INTL   PTCLDY    45  36  70 NW5       30.05R
JACKSON HAWKNS CLEAR     49  35  58 NW3       30.05R
MERIDIAN KEY   MOCLDY    48  39  71 CALM      30.04R
MERIDIAN NAS   MOCLDY    50  39  66 NW6       30.04R
RAYMOND        FAIR      43  37  81 MISG      30.05R
VICKSBURG      CLEAR     40  36  86 CALM      30.06R
$$

MSZ059>079-250300-
SOUTH MISSISSIPPI

CITY           SKY/WX    TMP DP  RH WIND       PRES   REMARKS
BROOKHAVEN     FAIR      46  39  76 CALM      30.06R
COLUMBIA       FAIR      52  39  62 MISG        N/A
HATTIESBURG    MOCLDY    55  39  54 N5        30.03R
MCCOMB         PTCLDY    52  35  52 N6        30.04R
NATCHEZ        CLEAR     46  37  71 CALM      30.06R
PINE BELT      MOCLDY    52  34  50 N7        30.03R
$$

MSZ080>082-250300-
COASTAL MISSISSIPPI

CITY           SKY/WX    TMP DP  RH WIND       PRES   REMARKS
BAY ST LOUIS   CLEAR     55  43  62 N5        30.01R
BILOXI         MOCLDY    60  48  65 N9        29.99R
PASCAGOULA     MOCLDY    60  47  61 N9        29.98R
GULFPORT       MOCLDY    60  46  59 N8        29.99R
$$



USA.gov is the U.S. government's official web portal to all federal, state and local government web resources and services.